sat.trackr.live / text

‹ back to catalog

STARLINK-11281 [DTC]

NORAD 60996 · 2024-158G

PAYLOAD ACTIVE UNKNOWN

§ Identity

Operator
Country
US
Launch date
2024-09-05
Launch site
AFETR
Launch vehicle
Mass (kg)
RCS (m²)

Purposes: comms

External: N2YO · Heavens-Above · Gunter

§ Orbital elements

Epoch: 2026-05-25T00:56:08.006784Z

Period
91.74 min
Inclination
53.1612°
Eccentricity
0.0001226
Mean motion
15.69713053 rev/d
Perigee alt
358.9 km
Apogee alt
360.5 km
Semi-major
6,737.9 km
B*
9.1888e-6
RAAN
265.0707°
Arg perigee
68.4453°
Mean anomaly
291.6695°
Rev number
9,957

§ Raw data

STARLINK-11281 [DTC]1 60996U 24158G   26145.03898156  .00000525  00000+0  91888-5 0  99982 60996  53.1612 265.0707 0001226  68.4453 291.6695 15.69713053 99576

JSON: /api/v1/satellites/60996 · /tle

For live sub-satellite position, see the globe view (requires WebGL).

§ Visibility from observer

Set your observer location to see the next 7 days of passes ≥ 10°. The values pass through the URL so the page stays shareable.

No JS? Fill the form by hand. The geolocation button needs JavaScript.